[keps] orb10161.2l.amsat
Ray Hoad
ray.hoad at mypbmail.com
Thu Jun 10 19:32:32 PDT 2010
SB KEPS @ AMSAT $ORB10161.N
2Line Orbital Elements 10161.AMSAT
HR AMSAT ORBITAL ELEMENTS FOR AMATEUR SATELLITES IN NASA FORMAT
FROM WA5QGD FORT WORTH,TX June 10, 2010
Send Subscribe/unsubscribe to KEPS at http://www.amsat.org/mailman/listinfo/keps
BID: ORB10161.N
DECODE 2-LINE ELSETS WITH THE FOLLOWING KEY:
1 AAAAAU 00 0 0 BBBBB.BBBBBBBB .CCCCCCCC 00000-0 00000-0 0 DDDZ
2 AAAAA EEE.EEEE FFF.FFFF GGGGGGG HHH.HHHH III.IIII JJ.JJJJJJJJKKKKKZ
KEY: A-CATALOGNUM B-EPOCHTIME C-DECAY D-ELSETNUM E-INCLINATION F-RAAN
G-ECCENTRICITY H-ARGPERIGEE I-MNANOM J-MNMOTION K-ORBITNUM Z-CHECKSUM
TO ALL RADIO AMATEURS BT
AO-07
1 07530U 74089B 10160.62105539 -.00000027 00000-0 10000-3 0 07994
2 07530 101.3997 176.7804 0011693 290.8065 069.1750 12.53578524627500
FO-29
1 24278U 96046B 10161.59715908 .00000001 00000-0 33859-4 0 3268
2 24278 098.5140 351.6408 0351330 140.8521 221.8608 13.52950393682211
SO-33
1 25509U 98061B 10160.43064524 -.00000020 00000-0 -18568-4 0 07300
2 25509 031.4336 192.3872 0354393 222.0790 135.2103 14.28309366606946
RS-22
1 27939U 03042A 10161.62837913 .00000168 00000-0 41196-4 0 2608
2 27939 097.8944 027.3938 0014779 081.2189 279.0680 14.63424968357994
VO-52
1 28650U 05017B 10160.70510943 -.00000005 00000-0 58814-5 0 05242
2 28650 097.6929 214.4314 0025990 302.7729 057.1002 14.81755492275587
SO-67
1 35870U 09049F 10161.74273618 .00000446 00000-0 23199-4 0 8083
2 35870 097.3322 211.0488 0004567 108.0340 031.4137 15.20914603 40478
HO-68
1 36122U 09072B 10161.71145695 -.00000045 00000-0 00000 0 0 3846
2 36122 100.4684 222.2063 0007511 354.6440 005.4587 13.16281003 23364
UO-11
1 14781U 84021B 10160.65202095 .00000290 00000-0 45610-4 0 02638
2 14781 098.0562 212.3704 0007967 262.3129 097.7204 14.79808686410692
AO-16
1 20439U 90005D 10161.69016221 .00000015 00000-0 21336-4 0 9162
2 20439 098.3314 119.8516 0010805 180.4949 179.6221 14.31863622 64451
LO-19
1 20442U 90005G 10161.47932357 .00000062 00000-0 38455-4 0 8272
2 20442 098.2912 125.4789 0011950 176.5292 183.5968 14.32095166 64590
AO-27
1 22825U 93061C 10160.87266922 .00000011 00000-0 21055-4 0 05511
2 22825 098.4843 109.0118 0007533 293.6738 066.3657 14.29299365871002
IO-26
1 22826U 93061D 10160.86944686 .00000013 00000-0 21620-4 0 2866
2 22826 098.4783 109.6128 0008083 289.3558 070.6750 14.29555428871115
GO-32
1 25397U 98043D 10161.56251966 .00000089 00000-0 57318-4 0 2065
2 25397 098.3127 169.3776 0000430 341.5453 018.5707 14.23179517619104
NO-44
1 26931U 01043C 10160.64834270 -.00000230 00000-0 -57579-4 0 4787
2 26931 067.0517 223.3971 0005590 265.1976 094.8477 14.29598500453678
SO-50
1 27607U 02058C 10161.55233805 .00000088 00000-0 35644-4 0 1957
2 27607 064.5584 016.6711 0034671 080.0705 280.4311 14.71546567401403
CO-55
1 27844U 03031E 10160.55942449 .00000066 00000-0 50954-4 0 8642
2 27844 098.7085 169.6428 0009387 187.7477 172.3570 14.20711640360008
CO-57
1 27848U 03031J 10161.57401964 .00000031 00000-0 34800-4 0 8151
2 27848 098.7132 169.7354 0009245 189.8643 170.2348 14.20503628360101
AO-51
1 28375U 04025K 10160.92591994 .00000023 00000-0 19386-4 0 06973
2 28375 098.0617 154.8358 0084435 118.6272 242.3444 14.40687235312462
GENESAT1
1 29655U 06058C 10161.87274791 .00090750 92178-5 25621-3 0 960
2 29655 040.0174 069.9937 0010580 276.5638 083.4003 15.92758979198984
CP3
1 31129U 07012N 10161.60127673 -.00000073 00000-0 -58743-5 0 5986
2 31129 097.9377 201.5276 0100320 253.7365 105.2653 14.52263152166905
CO-65
1 32785U 08021C 10161.68145260 .00000384 00000-0 55461-4 0 7030
2 32785 097.8970 226.6977 0014094 309.9582 050.0416 14.81664009114528
KKS-1
1 33493U 09002B 10161.76830872 .00000426 00000-0 61934-4 0 5628
2 33493 098.0851 281.2052 0020381 158.2468 201.9623 14.81005812 74535
SOHLA-1
1 33496U 09002E 10160.80701960 -.00000043 00000-0 10336-5 0 01252
2 33496 098.0582 269.9776 0005953 218.6737 141.4064 14.69497023073792
NOAA-10
1 16969U 86073A 10160.65266361 -.00000053 00000-0 -38278-5 0 00947
2 16969 098.6565 189.6906 0011612 230.7961 129.2167 14.27418096234504
NOAA-11
1 19531U 88089A 10160.81527933 -.00000177 00000-0 -68785-4 0 01074
2 19531 098.7690 249.9647 0011587 164.9793 195.1733 14.14926330120096
NOAA-12
1 21263U 91032A 10160.77123536 .00000213 00000-0 10880-3 0 05937
2 21263 098.7643 173.9327 0012214 183.4633 176.6454 14.25637746991347
MET-3/5
1 21655U 91056A 10160.58333194 .00000051 00000-0 10000-3 0 08342
2 21655 082.5563 314.0070 0013649 014.3565 345.7893 13.17022209904674
MET-2/21
1 22782U 93055A 10160.77097986 -.00000013 00000-0 -25386-4 0 07996
2 22782 082.5481 258.3230 0023817 065.4265 294.9383 13.83646254847057
OKEAN-4
1 23317U 94066A 10161.70854430 .00000013 00000-0 -13327-5 0 2552
2 23317 082.5412 359.9085 0020395 263.5111 096.3779 14.82823402845492
NOAA-14
1 23455U 94089A 10160.92332641 -.00000044 00000-0 27923-6 0 00862
2 23455 098.8780 241.7168 0008513 255.4470 104.5753 14.13787095796477
NOAA-15
1 25338U 98030A 10160.71026653 .00000219 00000-0 11227-3 0 04059
2 25338 098.6180 147.7687 0011781 095.6550 264.5957 14.24832497627684
RESURS
1 25394U 98043A 10160.69007065 -.00000006 00000-0 15130-4 0 05265
2 25394 098.3045 179.1772 0000423 222.2818 137.8323 14.24202344619281
FENGYUN1
1 25730U 99025A 10160.84493106 -.00000605 00000-0 -32862-3 0 623
2 25730 098.7860 125.9921 0022489 294.4159 065.4614 14.08197170570652
OKEAN-0
1 25860U 99039A 10160.53973439 .00000063 00000-0 17063-4 0 00151
2 25860 097.8311 133.4975 0001812 086.3837 273.7575 14.73643602585775
NOAA-16
1 26536U 00055A 10160.71811034 -.00000085 00000-0 -20910-4 0 08827
2 26536 099.1700 178.0110 0010624 003.8563 356.2663 14.12561940500779
NOAA-17
1 27453U 02032A 10160.90026208 .00000033 00000-0 32318-4 0 08854
2 27453 098.4320 211.6370 0012190 154.2926 205.8852 14.24163911413663
NOAA-18
1 28654U 05018A 10160.92746329 -.00000069 00000-0 -13288-4 0 03693
2 28654 098.9495 107.2121 0015361 074.7500 285.5396 14.11360966260412
NOAA-19
1 33591U 09005A 10160.91384891 .00000012 00000-0 30658-4 0 05665
2 33591 098.7874 103.1888 0013395 313.1838 046.8253 14.11057708068885
HUBBLE
1 20580U 90037B 10160.79995157 .00000418 00000-0 19150-4 0 5825
2 20580 028.4719 288.0856 0003457 118.4019 241.6867 15.00984670903644
ISS
1 25544U 98067A 10161.90293064 .00007708 00000-0 62806-4 0 3028
2 25544 051.6490 262.7699 0008898 308.1047 157.6396 15.71753274662489
CO-58
1 28895U 05043F 10160.71634712 .00000240 00000-0 59432-4 0 06050
2 28895 098.0195 045.4427 0016956 312.2023 047.7722 14.59899315245893
FALCON
1 30776U 07006E 10160.97743164 .00000552 00000-0 42470-4 0 08627
2 30776 035.4324 088.0623 0000206 065.3692 294.7038 15.03682396178970
MAST
1 31126U 07012K 10160.64982582 .00000172 00000-0 49506-4 0 8857
2 31126 097.9386 203.0516 0093449 249.6562 109.4577 14.53592720166966
CAPE1
1 31130U 07012P 10160.69416796 -.00000065 00000-0 -39727-5 0 09079
2 31130 097.9390 200.5166 0100945 257.4990 101.4837 14.52183650166576
COMPASS
1 32787U 08021E 10161.68648677 .00000489 00000-0 68394-4 0 6946
2 32787 097.8947 226.5333 0015208 310.5041 049.4835 14.81884809114535
AAUSAT2
1 32788U 08021F 10160.81245953 .00000857 00000-0 11452-3 0 06874
2 32788 097.8939 225.7965 0014631 314.2990 045.7090 14.82029147114418
DO-64
1 32789U 08021G 10160.68706536 .00000833 00000-0 11107-3 0 07062
2 32789 097.9016 226.1377 0014658 312.4636 047.5328 14.82168702114396
CO-66
1 32791U 08021J 10160.22174888 .00000492 00000-0 69202-4 0 06873
2 32791 097.8956 225.1043 0015527 313.6341 046.3605 14.81668449114276
RS-30
1 32953U 08025A 10161.69018581 .00000010 00000-0 00000 0 0 7723
2 32953 082.5020 033.7199 0019639 114.0272 246.2865 12.43005411 92935
TACSAT-3
1 35001U 09028A 10161.69839826 .00002425 00000-0 61112-4 0 3079
2 35001 040.4586 253.0855 0022197 315.1050 044.7969 15.41768713 59637
PHARMSAT
1 35002U 09028B 10160.61836671 .00002392 00000-0 59206-4 0 2901
2 35002 040.4689 257.5982 0025620 312.0691 047.7949 15.42292272 59480
HAWKSAT1
1 35003U 09028C 10160.67170610 .00005468 00000-0 11583-3 0 03219
2 35003 040.4641 252.3020 0022400 323.4471 036.4817 15.45345368059555
CP6
1 35004U 09028D 10161.64149370 .00006303 00000-0 12910-3 0 3097
2 35004 040.4614 245.5717 0021692 333.7809 026.1907 15.46170205 59704
AEROCUB3
1 35005U 09028E 10160.62242267 .00020697 00000-0 34677-3 0 03449
2 35005 040.4707 249.6038 0018455 338.8402 021.1652 15.51109506059576
DRAGNSAT
1 35690U 09038B 10076.22711312 .05715194 12509-4 31481-3 0 3162
2 35690 051.6170 315.4586 0004999 310.9891 057.3269 16.42150010 36561
POLLUX
1 35693U 09038E 10087.99866888 .23496735 12787-4 17715-3 0 3529
2 35693 051.6099 254.5746 0006270 294.4866 097.5899 16.52338462 38395
CASTOR
1 35694U 09038F 10161.65650746 .00059022 12923-4 10769-3 0 4546
2 35694 051.6364 235.0815 0001124 358.9344 001.1659 16.01677968 50011
METEOR-M
1 35865U 09049A 10161.73045612 .00000176 00000-0 10000-3 0 3729
2 35865 098.7585 215.5758 0003421 033.8482 326.2870 14.21830525 37809
RS-38
1 35869U 09049E 10161.77301077 .00000177 00000-0 10000-3 0 3807
2 35869 098.7581 215.6505 0005310 030.6245 329.5206 14.21983052 37815
/EX
More information about the Keps
mailing list